YO3LAW-13 Weather Reports


time (UTC)temp
F
wind
direction
speed
knots
gust
knots
rain 1hr
in
rain 24hr
in
rain mn
in
humidity
%
barometer
mb
20260508052635 60 234 0.0 3.5 0.00 0.01 0.00 85 1005.8
20260508051635 59 173 0.0 2.6 0.00 0.01 0.00 85 1005.6
20260508050635 59 16 2.6 3.5 0.00 0.01 0.00 85 1005.6
20260508045635 59 136 0.0 0.9 0.00 0.01 0.00 85 1005.5
20260508044635 60 98 0.9 3.5 0.00 0.01 0.00 85 1005.7
20260508043635 60 180 0.9 1.7 0.00 0.01 0.00 85 1005.6
20260508042635 59 345 0.0 3.5 0.00 0.01 0.00 88 1005.4
20260508041635 58 156 1.7 1.7 0.00 0.01 0.00 88 1005.3
20260508040635 57 144 0.0 2.6 0.00 0.01 0.00 89 1005.2
20260508035635 57 142 1.7 2.6 0.00 0.01 0.00 88 1005.0
20260508034635 57 48 0.0 1.7 0.00 0.01 0.00 88 1005.0
20260508033635 57 178 1.7 3.5 0.00 0.01 0.00 87 1004.9
20260508032635 57 174 0.0 2.6 0.00 0.01 0.00 86 1005.1
20260508031635 57 73 1.7 2.6 0.01 0.01 0.00 87 1005.0
20260508030635 57 197 3.5 3.5 0.01 0.01 0.00 87 1005.2
20260508025635 57 186 2.6 2.6 0.01 0.01 0.00 88 1005.0
20260508024635 57 342 1.7 2.6 0.01 0.01 0.00 87 1005.0
20260508023635 57 79 0.9 2.6 0.00 0.00 0.00 86 1004.9
20260508022635 57 208 1.7 3.5 0.00 0.00 0.00 85 1005.1
20260508021635 57 48 1.7 1.7 0.00 0.00 0.00 84 1005.0
20260508020635 57 339 1.7 2.6 0.00 0.00 0.00 83 1005.0
20260508015635 57 142 1.7 3.5 0.00 0.00 0.00 83 1005.2
20260508014635 57 111 0.9 2.6 0.00 0.00 0.00 83 1005.0
20260508013635 57 87 1.7 3.5 0.00 0.00 0.00 83 1005.1
20260508012635 57 261 0.0 4.3 0.00 0.00 0.00 83 1005.2
20260508011635 57 89 0.0 3.5 0.00 0.00 0.00 83 1005.0
20260508010635 57 176 0.9 3.5 0.00 0.00 0.00 83 1005.2
20260508005635 57 1 0.9 2.6 0.00 0.00 0.00 83 1005.2
20260508004635 57 189 0.0 3.5 0.00 0.00 0.00 82 1005.1
20260508003635 58 359 1.7 3.5 0.00 0.00 0.00 82 1005.1
20260508002635 58 111 1.7 2.6 0.00 0.00 0.00 81 1004.9
20260508001635 58 109 0.0 2.6 0.00 0.00 0.00 81 1005.1
20260508000635 59 104 0.0 1.7 0.00 0.00 0.00 81 1005.0
20260507235635 59 103 1.7 1.7 0.00 0.00 0.00 80 1005.1
20260507234635 59 65 0.0 2.6 0.00 0.00 0.00 80 1005.1
20260507233635 60 44 1.7 1.7 0.00 0.00 0.00 79 1005.1
20260507232635 60 65 0.0 3.5 0.00 0.00 0.00 80 1005.1
20260507231635 61 347 0.9 1.7 0.00 0.00 0.00 80 1005.0
20260507230635 61 50 0.0 0.0 0.00 0.00 0.00 80 1004.9
20260507225635 62 269 0.0 0.9 0.00 0.00 0.00 79 1005.0
20260507224635 62 38 0.0 1.7 0.00 0.00 0.00 79 1004.8
20260507223635 63 304 0.0 1.7 0.00 0.00 0.00 79 1004.8
20260507222635 64 130 0.9 1.7 0.00 0.00 0.00 78 1004.7
20260507221635 64 34 0.0 1.7 0.00 0.00 0.00 77 1004.8
20260507220635 65 246 0.0 0.0 0.00 0.00 0.00 75 1004.9
20260507215635 65 44 0.0 0.0 0.00 0.00 0.00 75 1004.8
20260507214635 65 44 0.0 0.0 0.00 0.00 0.00 74 1004.9
20260507213330 65 103 0.0 0.9 0.00 0.00 0.00 72 1004.8
20260507212330 66 200 0.0 0.0 0.00 0.00 0.00 72 1004.8
20260507211330 66 15 0.0 0.0 0.00 0.00 0.00 72 1004.9
20260507210330 65 269 0.0 0.9 0.00 0.00 0.00 73 1005.1
20260507205330 65 25 0.0 0.0 0.00 0.00 0.00 73 1005.2
20260507204330 65 135 0.0 0.0 0.00 0.00 0.00 73 1005.1
20260507203330 65 44 0.0 0.0 0.00 0.00 0.00 74 1005.2
20260507202330 65 269 0.0 0.0 0.00 0.00 0.00 73 1005.1
20260507201330 66 269 0.0 0.0 0.00 0.00 0.00 72 1005.2
20260507200330 67 44 0.0 0.0 0.00 0.00 0.00 70 1004.9
20260507195330 67 297 0.0 0.9 0.00 0.00 0.00 70 1005.1
20260507194330 67 62 0.0 0.0 0.00 0.00 0.00 70 1005.0
20260507193330 67 0 0.0 0.0 0.00 0.00 0.00 68 1005.0
20260507192330 68 269 0.0 0.0 0.00 0.00 0.00 66 1005.1
20260507191330 69 315 0.0 0.0 0.00 0.00 0.00 64 1005.0
20260507190330 69 120 0.0 0.9 0.00 0.00 0.00 63 1004.8
20260507185330 69 315 0.0 1.7 0.00 0.00 0.00 63 1004.7
20260507184330 69 22 0.0 0.9 0.00 0.00 0.00 62 1004.7
20260507183330 70 330 0.0 1.7 0.00 0.00 0.00 61 1004.7
20260507182330 70 104 0.0 1.7 0.00 0.00 0.00 60 1004.4
20260507181330 70 119 0.0 1.7 0.00 0.00 0.00 59 1004.5
20260507180330 71 117 0.0 1.7 0.00 0.00 0.00 56 1004.3
20260507175330 71 224 0.0 0.0 0.00 0.00 0.00 53 1004.4
20260507174330 71 10 0.0 0.9 0.00 0.00 0.00 54 1004.1
20260507173330 71 296 0.0 0.0 0.00 0.00 0.00 56 1004.0
20260507172330 72 124 0.0 0.0 0.00 0.00 0.00 53 1003.8
20260507171330 73 253 0.0 0.0 0.00 0.00 0.00 52 1003.7
20260507170330 73 11 0.0 0.9 0.00 0.00 0.00 49 1004.0
20260507165330 74 37 0.0 1.7 0.00 0.00 0.00 49 1003.9
20260507164330 74 147 0.0 0.0 0.00 0.00 0.00 45 1003.9
20260507163330 75 13 0.0 0.0 0.00 0.00 0.00 43 1004.1
20260507162330 76 188 0.0 1.7 0.00 0.00 0.00 41 1003.9
20260507161330 76 206 0.0 0.9 0.00 0.00 0.00 40 1004.0
20260507160330 77 135 0.0 0.0 0.00 0.00 0.00 39 1003.9
20260507155330 77 10 0.0 0.0 0.00 0.00 0.00 37 1004.0
20260507154330 77 32 0.0 0.0 0.00 0.00 0.00 37 1003.8
20260507153330 77 135 0.0 1.7 0.00 0.00 0.00 37 1004.0
20260507152330 78 89 0.0 1.7 0.00 0.00 0.00 37 1003.8
20260507151330 78 29 0.0 0.9 0.00 0.00 0.00 38 1003.9
20260507150330 78 127 0.0 1.7 0.00 0.00 0.00 36 1003.9
20260507145330 79 346 0.9 1.7 0.00 0.00 0.00 36 1003.9
20260507144330 79 142 0.0 1.7 0.00 0.00 0.00 37 1003.9
20260507143330 80 205 0.0 0.9 0.00 0.00 0.00 36 1004.1
20260507142330 80 167 0.0 1.7 0.00 0.00 0.00 36 1004.2
20260507141330 81 345 0.0 2.6 0.00 0.00 0.00 34 1004.2
20260507140330 81 20 0.0 1.7 0.00 0.00 0.00 34 1004.1
20260507135330 81 15 0.0 1.7 0.00 0.00 0.00 35 1004.3
20260507134330 80 18 0.9 1.7 0.00 0.00 0.00 36 1004.5
20260507133330 80 315 0.0 1.7 0.00 0.00 0.00 35 1004.5
20260507132330 80 75 0.0 0.9 0.00 0.00 0.00 37 1004.4
20260507131330 80 66 1.7 2.6 0.00 0.00 0.00 34 1004.5
20260507130330 80 25 0.0 1.7 0.00 0.00 0.00 33 1004.7
20260507125330 80 108 0.9 2.6 0.00 0.00 0.00 34 1004.7
20260507124330 80 346 0.0 3.5 0.00 0.00 0.00 32 1004.8
20260507123330 81 69 0.0 1.7 0.00 0.00 0.00 34 1004.8
20260507122330 81 322 0.9 1.7 0.00 0.00 0.00 33 1005.0
20260507121330 80 117 0.0 0.9 0.00 0.00 0.00 33 1005.0
20260507120330 79 303 0.9 2.6 0.00 0.00 0.00 35 1005.2
20260507115330 80 33 0.0 1.7 0.00 0.00 0.00 36 1005.2
20260507114330 79 139 0.9 1.7 0.00 0.00 0.00 35 1005.2
20260507113330 80 85 0.0 1.7 0.00 0.00 0.00 33 1005.4
20260507112330 79 249 0.0 0.9 0.00 0.00 0.00 35 1005.5
20260507111330 79 256 0.0 1.7 0.00 0.00 0.00 33 1005.2
20260507110330 79 217 0.0 2.6 0.00 0.00 0.00 33 1005.5
20260507105330 78 147 0.0 1.7 0.00 0.00 0.00 35 1005.6
20260507104330 78 49 0.0 1.7 0.00 0.00 0.00 34 1005.6
20260507103330 78 246 0.0 0.0 0.00 0.00 0.00 37 1005.8
20260507102330 78 123 0.9 3.5 0.00 0.00 0.00 34 1005.9
20260507101330 78 315 0.0 1.7 0.00 0.00 0.00 33 1005.8
20260507100330 78 0 0.0 1.7 0.00 0.00 0.00 34 1005.9
20260507095330 77 243 0.0 2.6 0.00 0.00 0.00 35 1005.9
20260507094330 77 319 0.0 2.6 0.00 0.00 0.00 35 1006.1
20260507093330 76 133 0.9 2.6 0.00 0.00 0.00 35 1006.0
20260507092330 76 52 0.0 1.7 0.00 0.00 0.00 34 1006.0
20260507091330 76 300 1.7 2.6 0.00 0.00 0.00 35 1006.1
20260507090330 74 320 1.7 2.6 0.00 0.00 0.00 37 1006.1
20260507085330 74 120 0.9 2.6 0.00 0.00 0.00 37 1006.2
20260507084330 73 82 1.7 1.7 0.00 0.00 0.00 38 1006.1
20260507083330 73 41 1.7 2.6 0.00 0.00 0.00 39 1006.1
20260507082330 71 235 0.0 0.9 0.00 0.00 0.00 41 1006.1
20260507081330 70 185 0.9 1.7 0.00 0.00 0.00 42 1006.1
20260507080330 69 106 1.7 1.7 0.00 0.00 0.00 43 1006.2
20260507075330 68 67 1.7 3.5 0.00 0.00 0.00 46 1005.8
20260507074330 68 161 1.7 3.5 0.00 0.00 0.00 46 1005.8
20260507073330 67 239 0.0 1.7 0.00 0.00 0.00 46 1005.9
20260507072330 66 327 0.9 2.6 0.00 0.00 0.00 51 1006.3
20260507071330 66 124 0.9 1.7 0.00 0.00 0.00 50 1006.2
20260507070330 65 195 0.0 1.7 0.00 0.00 0.00 53 1006.1
20260507065330 64 147 1.7 2.6 0.00 0.00 0.00 53 1006.0
20260507064330 63 27 1.7 3.5 0.00 0.00 0.00 55 1006.2
20260507063330 62 62 0.0 2.6 0.00 0.00 0.00 57 1006.1
20260507062330 60 148 0.9 3.5 0.00 0.00 0.00 58 1006.1
20260507061330 61 182 0.0 1.7 0.00 0.00 0.00 58 1005.8
20260507060330 60 107 1.7 3.5 0.00 0.00 0.00 62 1006.0
20260507055330 59 82 1.7 3.5 0.00 0.00 0.00 63 1006.0
20260507054330 58 195 0.0 0.9 0.00 0.00 0.00 67 1006.2